• In Hungary
  • List of Countries
  • For 7 days
  • Water Temperature
  • Satellite Maps
  • Weather Map
  • News
  • Weather Widgets
  • user-avatar
    Login

    Hourly Weather Goa

    Today, 19 July, Thursday

    Time Temperature Precipitation Wind Pressure Humidity
    00:00 +27°C° 0.9 mm 8 mps 750 mmHg 90%
    01:00 +26°C° 0.9 mm 8 mps 750 mmHg 90%
    02:00 +26°C° 0.9 mm 8 mps 749 mmHg 90%
    03:00 +26°C° 1 mm 8 mps 749 mmHg 90%
    04:00 +26°C° 1 mm 8 mps 749 mmHg 90%
    05:00 +26°C° 1 mm 8 mps 749 mmHg 90%
    06:00 +27°C° 1.4 mm 8 mps 749 mmHg 88%
    07:00 +28°C° 1.4 mm 8 mps 750 mmHg 85%
    08:00 +28°C° 1.4 mm 8 mps 750 mmHg 83%
    09:00 +29°C° 1.2 mm 8 mps 750 mmHg 81%
    10:00 +29°C° 1.2 mm 8 mps 750 mmHg 79%
    11:00 +31°C° 1.2 mm 8 mps 751 mmHg 77%
    12:00 +31°C° 0.7 mm 9 mps 750 mmHg 76%
    13:00 +31°C° 0.7 mm 9 mps 750 mmHg 75%
    14:00 +31°C° 0.7 mm 9 mps 749 mmHg 75%
    15:00 +31°C° 0.7 mm 9 mps 749 mmHg 77%
    16:00 +29°C° 0.7 mm 9 mps 749 mmHg 79%
    17:00 +29°C° 0.7 mm 9 mps 749 mmHg 81%
    18:00 +28°C° 0.8 mm 9 mps 749 mmHg 83%
    19:00 +28°C° 0.8 mm 9 mps 750 mmHg 85%
    20:00 +27°C° 0.8 mm 9 mps 750 mmHg 87%
    21:00 +27°C° 0.8 mm 9 mps 750 mmHg 87%
    22:00 +27°C° 0.8 mm 9 mps 750 mmHg 87%
    23:00 +27°C° 0.8 mm 9 mps 751 mmHg 88%

    Tomorrow, 20 July, Friday

    Time Temperature Precipitation Wind Pressure Humidity
    00:00 +27°C° 0.6 mm 9 mps 750 mmHg 88%
    01:00 +27°C° 0.6 mm 9 mps 750 mmHg 88%
    02:00 +27°C° 0.6 mm 9 mps 749 mmHg 89%
    03:00 +26°C° 0.6 mm 9 mps 749 mmHg 89%
    04:00 +26°C° 0.6 mm 9 mps 749 mmHg 89%
    05:00 +26°C° 0.6 mm 9 mps 748 mmHg 89%
    06:00 +27°C° 0.9 mm 9 mps 749 mmHg 87%
    07:00 +27°C° 0.9 mm 9 mps 749 mmHg 85%
    08:00 +28°C° 0.9 mm 9 mps 750 mmHg 83%
    09:00 +29°C° 1 mm 9 mps 750 mmHg 81%
    10:00 +29°C° 1 mm 9 mps 750 mmHg 79%
    11:00 +31°C° 1 mm 9 mps 750 mmHg 77%
    12:00 +31°C° 1 mm 9 mps 750 mmHg 77%
    13:00 +31°C° 1 mm 9 mps 749 mmHg 77%
    14:00 +31°C° 1 mm 9 mps 749 mmHg 77%
    15:00 +29°C° 1.2 mm 9 mps 749 mmHg 79%
    16:00 +29°C° 1.2 mm 9 mps 749 mmHg 81%
    17:00 +28°C° 1.2 mm 8 mps 749 mmHg 83%
    18:00 +28°C° 1.2 mm 8 mps 749 mmHg 85%
    19:00 +27°C° 1.2 mm 8 mps 750 mmHg 87%
    20:00 +27°C° 1.2 mm 9 mps 750 mmHg 89%
    21:00 +27°C° 1.6 mm 9 mps 750 mmHg 89%
    22:00 +27°C° 1.6 mm 9 mps 750 mmHg 88%
    23:00 +27°C° 1.6 mm 9 mps 750 mmHg 88%

    Day after tomorrow, 21 July, Saturday

    Time Temperature Precipitation Wind Pressure Humidity
    00:00 +27°C° 0.8 mm 9 mps 750 mmHg 89%
    01:00 +27°C° 0.8 mm 9 mps 749 mmHg 89%
    02:00 +27°C° 0.8 mm 10 mps 749 mmHg 89%
    03:00 +27°C° 0.7 mm 10 mps 749 mmHg 89%
    04:00 +27°C° 0.7 mm 9 mps 749 mmHg 89%
    05:00 +27°C° 0.7 mm 9 mps 749 mmHg 89%
    06:00 +27°C° 0.7 mm 9 mps 749 mmHg 88%
    07:00 +27°C° 0.7 mm 9 mps 750 mmHg 87%
    08:00 +28°C° 0.7 mm 9 mps 750 mmHg 86%
    09:00 +28°C° 0.7 mm 9 mps 750 mmHg 84%
    10:00 +29°C° 0.7 mm 9 mps 751 mmHg 82%
    11:00 +29°C° 0.7 mm 9 mps 751 mmHg 80%
    12:00 +29°C° 1.4 mm 9 mps 751 mmHg 80%
    13:00 +29°C° 1.4 mm 9 mps 750 mmHg 80%
    14:00 +29°C° 1.4 mm 9 mps 750 mmHg 81%
    15:00 +28°C° 1.2 mm 9 mps 750 mmHg 83%
    16:00 +28°C° 1.2 mm 10 mps 749 mmHg 84%
    17:00 +28°C° 1.2 mm 10 mps 749 mmHg 86%
    18:00 +27°C° 1.1 mm 10 mps 750 mmHg 87%
    19:00 +27°C° 1.1 mm 10 mps 750 mmHg 88%
    20:00 +27°C° 1.1 mm 10 mps 751 mmHg 88%
    21:00 +27°C° 1.1 mm 10 mps 751 mmHg 88%
    22:00 +27°C° 1.1 mm 10 mps 751 mmHg 88%
    23:00 +27°C° 1.1 mm 10 mps 751 mmHg 88%

    22 July, Sunday

    Time Temperature Precipitation Wind Pressure Humidity
    00:00 +27°C° 1.1 mm 10 mps 751 mmHg 88%
    01:00 +27°C° 1.1 mm 10 mps 750 mmHg 88%
    02:00 +27°C° 1.1 mm 10 mps 749 mmHg 88%
    03:00 +27°C° 0.9 mm 10 mps 749 mmHg 88%
    04:00 +27°C° 0.9 mm 10 mps 749 mmHg 88%
    05:00 +27°C° 0.9 mm 10 mps 749 mmHg 88%
    06:00 +27°C° 0.9 mm 10 mps 749 mmHg 87%
    07:00 +28°C° 0.9 mm 10 mps 750 mmHg 86%
    08:00 +28°C° 0.9 mm 10 mps 750 mmHg 85%
    09:00 +28°C° 1.1 mm 10 mps 750 mmHg 83%
    10:00 +29°C° 1.1 mm 10 mps 750 mmHg 82%
    11:00 +29°C° 1.1 mm 11 mps 751 mmHg 80%
    12:00 +29°C° 1.2 mm 10 mps 750 mmHg 82%
    13:00 +28°C° 1.2 mm 10 mps 750 mmHg 83%
    14:00 +28°C° 1.2 mm 10 mps 749 mmHg 84%
    15:00 +28°C° 1.2 mm 10 mps 749 mmHg 85%
    16:00 +28°C° 1.2 mm 10 mps 749 mmHg 85%
    17:00 +28°C° 1.2 mm 10 mps 748 mmHg 86%
    18:00 +27°C° 1.5 mm 10 mps 749 mmHg 86%
    19:00 +27°C° 1.5 mm 10 mps 749 mmHg 86%
    20:00 +27°C° 1.5 mm 10 mps 750 mmHg 87%
    21:00 +27°C° 1.5 mm 10 mps 750 mmHg 87%
    22:00 +27°C° 1.5 mm 10 mps 750 mmHg 88%
    23:00 +27°C° 1.5 mm 10 mps 750 mmHg 88%

    23 July, Monday

    Time Temperature Precipitation Wind Pressure Humidity
    00:00 +27°C° 2 mm 10 mps 749 mmHg 88%
    01:00 +27°C° 2 mm 11 mps 749 mmHg 89%
    02:00 +27°C° 2 mm 11 mps 748 mmHg 89%
    03:00 +27°C° 1.8 mm 11 mps 748 mmHg 89%
    04:00 +27°C° 1.8 mm 11 mps 748 mmHg 89%
    05:00 +27°C° 1.8 mm 11 mps 748 mmHg 88%
    06:00 +27°C° 1.2 mm 11 mps 748 mmHg 87%
    07:00 +28°C° 1.2 mm 10 mps 749 mmHg 86%
    08:00 +28°C° 1.2 mm 10 mps 749 mmHg 85%
    09:00 +28°C° 1 mm 10 mps 749 mmHg 86%
    10:00 +28°C° 1 mm 10 mps 749 mmHg 86%
    11:00 +27°C° 1 mm 10 mps 750 mmHg 87%
    12:00 +27°C° 1.5 mm 10 mps 749 mmHg 87%
    13:00 +27°C° 1.5 mm 10 mps 748 mmHg 87%
    14:00 +27°C° 1.5 mm 10 mps 748 mmHg 88%
    15:00 +27°C° 1.3 mm 10 mps 748 mmHg 87%
    16:00 +27°C° 1.3 mm 10 mps 748 mmHg 87%
    17:00 +28°C° 1.3 mm 10 mps 747 mmHg 86%
    18:00 +27°C° 0.9 mm 10 mps 748 mmHg 87%
    19:00 +27°C° 0.9 mm 10 mps 748 mmHg 88%
    20:00 +27°C° 0.9 mm 9 mps 749 mmHg 90%
    21:00 +27°C° 1.5 mm 9 mps 749 mmHg 89%
    22:00 +27°C° 1.5 mm 9 mps 749 mmHg 89%
    23:00 +27°C° 1.5 mm 9 mps 749 mmHg 89%

    24 July, Tuesday

    Time Temperature Precipitation Wind Pressure Humidity
    00:00 +27°C° 1.3 mm 9 mps 749 mmHg 90%
    01:00 +27°C° 1.3 mm 10 mps 748 mmHg 90%
    02:00 +27°C° 1.3 mm 10 mps 748 mmHg 90%
    03:00 +27°C° 1.1 mm 10 mps 748 mmHg 90%
    04:00 +27°C° 1.1 mm 9 mps 748 mmHg 89%
    05:00 +27°C° 1.1 mm 9 mps 748 mmHg 89%
    06:00 +27°C° 1.5 mm 9 mps 748 mmHg 88%
    07:00 +28°C° 1.5 mm 9 mps 749 mmHg 87%
    08:00 +28°C° 1.5 mm 9 mps 750 mmHg 86%
    09:00 +28°C° 1.5 mm 9 mps 750 mmHg 86%
    10:00 +28°C° 1.5 mm 9 mps 750 mmHg 86%
    11:00 +28°C° 1.5 mm 9 mps 750 mmHg 86%
    12:00 +28°C° 1.4 mm 9 mps 750 mmHg 86%
    13:00 +28°C° 1.4 mm 9 mps 749 mmHg 86%
    14:00 +28°C° 1.4 mm 9 mps 749 mmHg 87%
    15:00 +28°C° 1.9 mm 9 mps 749 mmHg 86%
    16:00 +28°C° 1.9 mm 9 mps 749 mmHg 85%
    17:00 +28°C° 1.9 mm 9 mps 749 mmHg 84%
    18:00 +28°C° 1.3 mm 9 mps 750 mmHg 86%
    19:00 +27°C° 1.3 mm 9 mps 750 mmHg 88%
    20:00 +27°C° 1.3 mm 8 mps 751 mmHg 89%
    21:00 +27°C° 1.3 mm 9 mps 751 mmHg 90%
    22:00 +27°C° 1.3 mm 9 mps 751 mmHg 90%
    23:00 +26°C° 1.3 mm 9 mps 751 mmHg 90%
    Show more